sat.trackr.live / text

‹ back to catalog

FLOCK 4G-17

NORAD 62681 · 2025-009CA

PAYLOAD ACTIVE UNKNOWN

§ Identity

Operator
Country
US
Launch date
2025-01-14
Launch site
AFWTR
Launch vehicle
Mass (kg)
RCS (m²)

Purposes: earth_obs

External: N2YO · Heavens-Above · Gunter

§ Orbital elements

Epoch: 2026-09-19T00:35:03.652512Z

Period
94.04 min
Inclination
97.3859°
Eccentricity
0.0004411
Mean motion
15.31229745 rev/d
Perigee alt
469.1 km
Apogee alt
475.2 km
Semi-major
6,850.3 km
B*
2.4619e-4
RAAN
342.9552°
Arg perigee
18.2787°
Mean anomaly
341.8612°
Rev number
15,090

§ Raw data

FLOCK 4G-171 62681U 25009CA  26262.02434783  .00007351  00000+0  24619-3 0  99982 62681  97.3859 342.9552 0004411  18.2787 341.8612 15.31229745150908

JSON: /api/v1/satellites/62681 · /tle

For live sub-satellite position, see the globe view (requires WebGL).

§ Visibility from observer

Set your observer location to see the next 7 days of passes ≥ 10°. The values pass through the URL so the page stays shareable.

No JS? Fill the form by hand. The geolocation button needs JavaScript.